Weather in Znamenka

Russia / Kirov Oblast     57°14′42″N   47°49′53″E
temp.,
°C
wind,
m/s
gust,
m/s
humid.,
%
clouds,
%
prec.,
mm/h
press.,
hPa
HPBL,
m
26 may, thu
thu2600:00+3wsw389390 0.0 1009285
03:00+2sw3894100 0.0 1009220
06:00+4wsw489599 0.0 1009589
09:00+7sw5984100 0.2 1009799
12:00+9sw6971100 1.5 10091392
15:00+9sw577787 2.5 10091006
18:00+8sw588512 0.3 1009665
21:00+4s47945 0.3 1008107
27 may, fri
fri2700:00+3s389611 0.0 1007138
03:00+4se3696100 0.0 1005130
06:00+8sse5993100 0.0 1003387
09:00+8ese51197100 1.8 1001597
12:00+8se51296100 1.9 999611
15:00+11se51093100 2.4 998604
18:00+10se499692 0.6 997398
21:00+9sse3798100 1.7 997325
28 may, sat
sat2800:00+9sw3699100 1.4 998246
03:00+8wsw61297100 3.1 999570
06:00+9sw51197100 0.6 1000643
09:00+10ssw61089100 0.7 1002721
12:00+14ssw797291 0.5 10011296
15:00+9se41197100 6.3 1000860
18:00+9wsw61390100 0.9 1002860
21:00+9sw6149496 1.5 1004575
29 may, sun
sun2900:00+8sw615923 0.1 1006524
03:00+7ssw615940 0.1 1007550
06:00+9sw7139022 0.0 1009931
09:00+12sw81272100 0.1 10111285
12:00+15wsw71055100 0.0 10111799
15:00+13sw6871100 0.3 1012694
18:00+10sw61093100 0.6 1013593
21:00+8wsw379667 1.5 1015207
30 may, mon
mon3000:00+6wsw38973 0.0 1018178
03:00+5wsw36950 0.0 1020106
06:00+9sw478918 0.0 1021222
09:00+14sw577369 0.0 1022641
12:00+17wsw685999 0.1 10221757
15:00+17sw4766100 0.1 10221206
18:00+16wsw367754 0.2 1022220
21:00+11wsw33875 0.2 102324